sat.trackr.live / text

‹ back to catalog

STARLINK-37642

NORAD 69455 · 2026-127N

PAYLOAD ACTIVE UNKNOWN

§ Identity

Operator
Country
US
Launch date
2026-06-08
Launch site
AFETR
Launch vehicle
Mass (kg)
RCS (m²)

Purposes: comms

External: N2YO · Heavens-Above · Gunter

§ Orbital elements

Epoch: 2026-09-20T00:48:17.106048Z

Period
93.85 min
Inclination
53.1566°
Eccentricity
0.0001474
Mean motion
15.34425127 rev/d
Perigee alt
461.6 km
Apogee alt
463.6 km
Semi-major
6,840.8 km
B*
6.3229e-4
RAAN
167.6677°
Arg perigee
88.3815°
Mean anomaly
271.7356°
Rev number
1,612

§ Raw data

STARLINK-376421 69455U 26127N   26263.03353132  .00021064  00000+0  63229-3 0  99932 69455  53.1566 167.6677 0001474  88.3815 271.7356 15.34425127 16121

JSON: /api/v1/satellites/69455 · /tle

For live sub-satellite position, see the globe view (requires WebGL).

§ Visibility from observer

Set your observer location to see the next 7 days of passes ≥ 10°. The values pass through the URL so the page stays shareable.

No JS? Fill the form by hand. The geolocation button needs JavaScript.